Location: ????????
(41.4741°N, 22.6430°E)
Time: 06:10:25
(UTC+00:00)

Daily predictions for brighter satellites

Satellite Brightness Start Highest point End
(mag) Time Altitude Azimuth Time Altitude Azimuth Time Altitude Azimuth
ARGOS Delta rocket 4.5 16:33:02 10° NNE 16:38:00 39° E 16:42:41 10° SSE
Okean O Rocket 2.6 16:39:35 10° SE 16:43:13 27° ENE 16:46:54 10° N
SKYMED 3 4.4 16:39:06 10° NNE 16:43:13 75° E 16:47:20 10° S
Cosmos 2219 3.2 16:38:24 10° NNW 16:44:12 78° ENE 16:49:57 10° SSE
Meteor 1-21 4.3 16:38:52 10° N 16:44:37 89° WSW 16:50:16 10° S
Cosmos 2242 Rocket 4.2 16:40:21 10° NNW 16:44:42 62° W 16:49:01 10° S
DELTA 2 R/B(2) 4.0 16:46:10 10° W 16:47:52 49° S 16:50:36 10° ESE
GENESIS II 4.4 16:46:18 10° NW 16:50:24 84° WSW 16:54:26 10° SSE
Cosmos 2263 Rocket 3.1 16:46:41 10° N 16:51:37 29° NE 16:56:31 10° ESE
Cosmos 1242 Rocket 2.5 16:48:38 10° S 16:52:07 56° E 16:55:37 10° NNE
CZ-2C R/B 2.6 16:49:53 10° WSW 16:52:23 21° S 16:54:57 10° SE
Spot 1 3.9 16:48:25 10° NNE 16:52:39 69° ESE 16:56:42 10° S
SL-14 R/B 4.0 16:53:27 10° NNE 16:57:03 33° ENE 17:00:40 10° SE
COBE Rocket 4.0 16:52:23 10° SSE 16:57:09 53° ENE 17:01:49 10° N
YAOGAN 1 2.9 16:53:08 10° SE 16:57:14 45° ENE 17:01:22 10° N
Cosmos 1805 3.3 16:53:44 10° S 16:57:29 52° E 17:01:16 10° NNE
USA 267 3.4 16:51:38 10° SE 16:58:11 83° SW 17:04:47 10° NW
Cosmos 1674 Rocket 4.3 16:55:53 10° NNE 16:59:51 32° ENE 17:03:49 10° SE
Cosmos 1726 2.7 16:58:51 10° SSE 17:02:09 33° E 17:05:28 10° NNE
SKYMED 2 4.4 16:58:30 10° N 17:02:45 54° WNW 17:06:59 10° SSW
Cosmos 2082 3.8 16:57:26 10° NNW 17:03:08 60° ENE 17:08:46 10° SE
Cosmos 1697 Rocket 3.6 17:03:00 10° SW 17:08:28 52° WNW 17:13:58 10° NNE
Cosmos 1674 3.7 17:07:18 10° NNW 17:10:56 48° W 17:14:30 10° SSW
Cosmos 1766 3.8 17:07:49 10° SSE 17:11:22 35° E 17:14:57 10° NNE
Cosmos 2279 Rocket 4.0 17:07:41 10° N 17:13:59 86° E 17:20:15 10° S
Cosmos 2180 Rocket 4.5 17:13:01 10° N 17:19:16 72° E 17:25:33 10° SSE
Cosmos 2221 Rocket 3.5 17:17:30 10° N 17:22:02 78° E 17:26:34 10° S
ASTEX 1 4.0 17:17:59 10° N 17:22:54 62° W 17:27:48 10° SSW
Cosmos 968 Rocket 4.1 17:22:53 10° SSE 17:27:31 32° E 17:32:09 10° NE
Cosmos 1378 Rocket 3.4 17:24:48 10° N 17:29:11 67° E 17:33:28 10° SSE
Meteor 2-14 Rocket 4.3 17:25:30 10° S 17:31:34 82° E 17:37:38 10° N
Cosmos 1733 4.2 17:28:20 10° SSW 17:31:58 48° W 17:35:37 10° N
USA 229 DEB 4.1 17:25:39 10° NW 17:33:09 79° WSW 17:41:05 10° SSE
USA 229 4.1 17:25:45 10° NW 17:33:15 80° WSW 17:41:11 10° SSE
Cosmos 540 Rocket 4.0 17:30:37 10° NNW 17:35:39 61° WSW 17:40:39 10° S
Hubble Space Telescope 3.2 17:34:13 10° SSW 17:35:44 12° S 17:37:16 10° SSE
Cosmos 2227 Rocket 4.0 17:31:04 10° NW 17:36:01 32° WSW 17:40:57 10° SSW
Cosmos 1733 Rocket 4.0 17:32:33 10° SSW 17:36:50 50° W 17:41:11 10° N
CZ-4B R/B 3.7 17:34:05 10° S 17:39:21 62° WSW 17:44:45 10° NNW
Cosmos 2322 Rocket 3.6 17:35:29 10° SSE 17:46:10 - NE 17:37:34 19° SE
CSL-04 Rocket 4.0 17:40:02 26° ESE 17:42:35 43° ENE 17:47:39 10° N
Feng Yun 1-1 Rocket 4.1 17:38:31 10° SSE 17:44:04 87° ENE 17:49:32 10° NNW
Cosmos 841 Rocket 3.6 17:41:29 10° NNW 17:46:40 77° WSW 17:51:47 10° SSE
Okean-O 3.1 17:46:36 37° E 17:47:11 39° ENE 17:51:18 10° N
Resurs 1-3 4.4 17:48:54 32° ENE 17:48:54 32° ENE 17:52:33 10° N
Cosmos 1980 Rocket 3.1 17:43:13 10° SW 17:48:40 50° WNW 17:54:09 10° NNE
Meteor 2-21 Rocket 4.3 17:42:40 10° S 17:48:42 78° E 17:54:45 10° N
Meteor 1-12 Rocket 4.3 17:43:47 10° S 17:49:45 79° E 17:55:47 10° NNE
ISS -3.1 17:46:35 10° NW 17:49:49 42° NNE 17:49:53 42° NNE
CZ-4 R/B 1.8 17:45:55 10° S 17:50:01 65° WSW 17:54:12 10° NNW
Cosmos 1570 Rocket 4.4 17:48:30 10° N 17:53:29 42° ENE 17:54:22 38° E
SJ-6B 2.9 17:54:52 50° NE 17:54:52 50° NE 17:58:14 10° N
Cosmos 1428 Rocket 4.4 17:52:44 10° S 17:58:44 58° E 18:04:48 10° NNE
Cosmos 2195 Rocket 4.4 17:52:44 10° S 17:58:48 61° E 18:04:59 10° NNE
Cosmos 489 Rocket 4.5 17:52:27 10° SSW 17:58:48 87° WNW 18:05:11 10° NNE
OAO 2 Rocket 4.0 17:55:18 10° SW 17:59:45 35° S 18:00:16 34° SSE
Cosmos 2278 4.0 17:58:10 10° SSW 18:03:49 69° WNW 18:09:30 10° NNE
Meteor 2-16 Rocket 4.4 17:59:41 10° S 18:05:48 89° ESE 18:12:00 10° N
USA 186 2.6 18:06:54 45° N 18:06:54 45° N 18:09:19 10° N
SL-16 R/B 2.1 18:01:33 10° S 18:07:07 61° ESE 18:12:42 10° NNE
Meteor 1-24 Rocket 3.6 18:03:26 10° N 18:08:39 55° ENE 18:09:12 52° ESE
Cosmos 1437 Rocket 2.7 18:08:27 10° SSW 18:12:13 74° W 18:15:58 10° N
Cosmos 2026 Rocket 3.8 18:10:18 10° S 18:16:19 70° E 18:22:21 10° NNE
Meteor 1-22 Rocket 4.0 18:11:01 10° S 18:16:21 81° E 18:21:53 10° NNE
Cosmos 2208 Rocket 4.2 18:11:34 10° N 18:16:49 53° ENE 18:16:49 53° ENE
SL-4 R/B 2.9 18:13:44 10° NW 18:18:03 43° NNE 18:18:03 43° NNE
Cosmos 2285 Rocket 3.9 18:11:46 10° NNW 18:18:10 88° ENE 18:20:53 37° SSE
Cosmos 1844 Rocket 3.7 18:13:16 10° N 18:17:37 30° NE 18:17:37 30° NE
Okean O Rocket 3.6 18:15:46 10° SSW 18:19:28 27° W 18:23:13 10° NW
Cosmos 1908 Rocket 4.5 18:16:56 10° SSW 18:21:07 48° WNW 18:25:19 10° N
Timation 2 Rocket 4.4 18:15:15 10° NNW 18:21:33 59° WSW 18:25:24 23° S
USA 81 3.9 18:17:50 10° N 18:23:04 68° E 18:23:04 68° E
Cosmos 2292 Rocket 4.5 18:19:19 10° SSW 18:25:20 61° W 18:29:51 10° N
Cosmos 1553 Rocket 4.5 18:19:44 10° N 18:25:03 42° ENE 18:25:03 42° ENE
BREEZE-M TANK 4.2 18:18:49 10° SW 18:24:53 33° S 18:24:53 33° S
Landsat 5 4.4 18:23:08 10° N 18:27:31 51° WNW 18:31:49 10° SSW
Cosmos 1782 Rocket 4.2 18:29:51 47° N 18:29:51 47° N 18:33:02 10° N
Cosmos 1814 Rocket 4.3 18:23:53 10° NNW 18:29:05 64° WSW 18:30:29 45° SSW
BREEZE M DEB (TANK) 3.0 18:26:24 10° WSW 18:31:25 52° WSW 18:31:25 52° WSW
Cosmos 2263 Rocket 3.2 18:30:18 10° NW 18:35:40 43° WSW 18:38:39 24° SSW
H-2A R/B 4.5 18:39:28 19° N 18:39:28 19° N 18:40:39 10° N
Cosmos 2227 4.3 18:33:09 10° NNW 18:38:45 70° WSW 18:39:33 61° SSW
Meteor 2-5 Rocket 3.9 18:34:32 10° NNW 18:40:02 68° W 18:41:16 52° SSW
Resurs 01 Rocket 3.7 19:05:25 21° NNW 19:05:25 21° NNW 19:06:57 10° NNW
Cosmos 2322 Rocket 4.3 19:18:17 10° SW 19:27:51 18° N 19:29:15 10° NNE
SL-16 R/B 4.4 19:47:19 10° WSW 19:51:38 22° NW 19:55:59 10° N
